Regional Weather Roundup
Issued by NWS

Home | Current Version | Previous Version | Text Only | Print | Product List | Glossary Off
Versions: 1 2 3 4 5 6 7 8 9 10 11 12 13 14 15 16 17 18 19 20 21 22 23 24 25 26 27 28 29 30 31 32 33 34 35 36 37 38 39 40 41 42 43 44 45 46 47 48 49 50

000
ASUS43 KOAX 182002
RWRNE

WEATHER ROUNDUP FOR NEBRASKA
NATIONAL WEATHER SERVICE OMAHA NE
300 PM CDT FRI APR 18 2014

NOTES: SATELLITE DATA IS BEING USED TO AUGMENT CLOUD COVER ABOVE
       12000 FEET.
       "FAIR" INDICATES FEW OR NO CLOUDS BELOW 12,000 FEET WITH NO
       SIGNIFICANT WEATHER AND/OR OBSTRUCTIONS TO VISIBILITY.

  * THESE STATIONS DO NOT REPORT WEATHER SUCH AS RAIN...SNOW OR FOG.

NEZ001>004-019>022-054>056-182100-
NEBRASKA PANHANDLE

CITY           SKY/WX    TMP DP  RH WIND       PRES   REMARKS
SCOTTSBLUFF    CLOUDY    81  36  19 SW14      29.82F
ALLIANCE       CLOUDY    74  33  22 S22       29.86F
CHADRON        CLOUDY    77  41  27 SW22G30   29.75F
KIMBALL        MOSUNNY   76  20  12 S16G24    29.90F
SIDNEY         PTSUNNY   78  34  20 S17G25    29.91F
$$

NEZ057>060-069>072-079>082-182100-
SOUTHWEST NEBRASKA

CITY           SKY/WX    TMP DP  RH WIND       PRES   REMARKS
NORTH PLATTE   CLOUDY    70  41  34 S20G26    29.95F
IMPERIAL       PTSUNNY   75  38  26 S20G25    29.93F
LEXINGTON      MOSUNNY   67  42  39 S28G33    30.00F
MCCOOK         MOSUNNY   71  42  35 S28G36    29.99F
OGALLALA       CLOUDY    73  37  26 S18G26    29.91F
$$

NEZ005>010-023>029-035>040-094-182100-
NORTH CENTRAL NEBRASKA

CITY           SKY/WX    TMP DP  RH WIND       PRES   REMARKS
VALENTINE      MOSUNNY   74  32  21 S28G39    29.83F
AINSWORTH      MOSUNNY   73  37  27 S32       29.88F
BROKEN BOW     MOSUNNY   68  42  38 S29G37    29.99F
O`NEILL        MOSUNNY   70  35  27 S32G38    29.96F
ORD            MOSUNNY   68  40  35 S24G37    30.00F
THEDFORD       PTSUNNY   72  34  25 S21G36    29.92F
$$

NEZ041-046>049-061>064-073>077-083>087-182100-
SOUTH CENTRAL NEBRASKA

CITY           SKY/WX    TMP DP  RH WIND       PRES   REMARKS
GRAND ISLAND   MOSUNNY   68  42  38 S24G35    30.07F
AURORA         MOSUNNY   67  42  39 S23G32    30.08F
HASTINGS       MOSUNNY   67  41  38 S17G30    30.06F
HEBRON         MOSUNNY   68  41  36 S18G28    30.13F
HOLDREGE       MOSUNNY   69  40  34 S28G35    30.02F
KEARNEY *      MOSUNNY   68  43  40 S26G37    30.04F
YORK           MOSUNNY   66  41  39 S22G36    30.10F
$$

NEZ011>018-030>034-042>045-182100-
NORTHEAST NEBRASKA

CITY           SKY/WX    TMP DP  RH WIND       PRES   REMARKS
NORFOLK        SUNNY     66  39  37 S28G36    30.06F
ALBION         SUNNY     68  38  33 S22G37    30.05F
BLAIR          SUNNY     65  35  32 S22       30.16F
COLUMBUS *     SUNNY     66  41  39 S21G30    30.10F
FREMONT        SUNNY     67  35  30 S20G30    30.15F
TEKAMAH        SUNNY     68  34  28 S22G32    30.15F
$$

NEZ050>053-065>068-078-088>093-182100-
SOUTHEAST NEBRASKA

CITY           SKY/WX    TMP DP  RH WIND       PRES   REMARKS
LINCOLN        SUNNY     71  39  31 S17G30    30.14F
OMAHA EPPLEY   SUNNY     66  35  31 S21G29    30.17F
BEATRICE       MOSUNNY   69  39  33 S20G28    30.15F
NEBRASKA CITY  SUNNY     67  38  34 S15G21    30.19F
PLATTSMOUTH    SUNNY     66  32  28 SE9G21    30.18F
$$

NEZ044-045-051>053-067-182100-
OMAHA AREA

CITY           SKY/WX    TMP DP  RH WIND       PRES   REMARKS
OMAHA EPPLEY   SUNNY     66  35  31 S21G29    30.17F
BLAIR          SUNNY     65  35  32 S22       30.16F
FREMONT        SUNNY     67  35  30 S20G30    30.15F
MILLARD        SUNNY     64  37  35 SE18      30.16F
OFFUTT AFB     SUNNY     66  38  35 S13G24    30.17F
PLATTSMOUTH    SUNNY     66  32  28 SE9G21    30.18F
WAHOO          FAIR      67  33  28 S23G29    30.14F
$$



USA.gov is the U.S. government's official web portal to all federal, state and local government web resources and services.